Theta_e
294 289 286 290 291 293 292 290 289 292 296 294 294 294 296 299 297 295 296 296 295 296 300 301 303 328 337 336 336 339 337 335 336 334 332 331 331 334 335 339 340 337 340 342
290 286 293 295 294 292 291 289 288 292 296 294 293 292 296 298 296 298 299 299 298 296 299 301 302 329 337 335 335 337 336 337 337 336 336 335 334 336 336 340 340 340 341 343
288 292 296 294 293 291 289 288 289 288 293 293 292 290 293 297 298 298 299 300 299 298 298 302 303 330 334 335 334 336 338 338 336 337 336 335 337 341 338 338 339 341 344 344
290 294 295 292 291 292 287 293 294 293 290 284 292 281 290 293 295 298 299 300 301 301 300 300 302 318 332 335 337 337 338 339 337 336 339 336 334 334 336 339 341 343 344 341
290 292 291 289 291 295 291 296 292 291 288 285 288 283 289 292 291 294 297 299 300 300 298 298 301 306 331 334 335 337 337 339 339 333 340 339 334 335 341 342 342 341 339 337
294 298 294 295 299 298 297 292 290 288 285 281 286 285 286 289 291 293 297 299 300 301 301 300 300 302 320 333 335 334 335 336 337 331 335 339 336 339 339 340 338 337 336 334
291 292 294 299 291 293 290 284 274 272 279 278 287 285 288 292 296 296 296 297 299 300 299 299 299 299 309 330 332 333 333 333 334 331 335 339 337 340 339 339 337 334 332 331
283 282 291 296 291 289 288 284 276 269 271 275 286 280 285 295 298 299 300 298 300 299 298 298 299 299 305 325 330 331 332 332 332 334 335 337 338 339 339 339 337 334 333 330
284 285 294 295 296 294 287 280 289 280 282 279 281 284 290 294 295 296 297 298 297 297 298 299 301 300 300 321 327 328 330 332 333 334 339 339 338 339 338 337 335 333 331 328
291 283 292 294 296 295 291 291 280 286 275 274 279 280 282 287 291 295 294 295 296 298 299 300 300 300 301 313 326 329 329 330 333 334 338 340 338 338 335 334 332 330 328 325
290 286 288 292 289 286 285 280 286 285 283 276 276 279 288 289 291 292 293 295 296 296 297 299 300 299 299 304 325 330 330 329 330 332 334 337 335 333 333 331 329 327 325 324
291 288 284 286 293 294 289 286 289 283 282 284 281 282 295 292 292 294 295 297 298 299 299 300 300 301 301 304 325 331 333 330 330 333 332 334 333 333 331 328 327 326 322 323
292 286 281 283 286 290 289 290 289 288 287 282 280 281 295 296 296 298 297 297 298 300 301 303 310 310 304 306 326 330 334 333 331 337 332 332 332 331 328 326 325 324 321 319
297 288 286 281 285 289 286 288 289 287 282 281 282 284 290 293 294 297 297 295 294 296 300 302 306 313 312 310 326 330 332 335 336 336 334 332 331 328 325 324 322 320 319 316
294 285 287 288 289 288 287 287 287 286 287 282 284 283 287 290 292 293 294 294 294 294 296 301 305 314 316 317 325 329 331 333 334 332 332 330 325 325 324 321 319 317 316 314
292 285 287 285 289 288 286 288 288 289 288 285 285 283 290 292 293 292 292 291 291 293 294 298 301 315 320 320 324 327 330 330 332 330 328 327 325 323 320 315 313 312 311 310
290 288 285 280 286 285 280 284 285 284 286 284 280 285 289 289 290 289 289 290 290 292 293 295 299 312 317 319 320 324 329 330 330 327 324 323 320 315 313 312 311 309 307 307
287 287 287 281 283 275 285 288 286 284 285 288 286 287 289 288 289 290 290 289 290 291 293 294 299 315 316 317 318 324 329 327 325 322 320 316 314 311 310 308 306 305 305 305
290 289 284 281 279 283 285 284 283 281 281 287 284 285 286 287 288 286 290 291 291 292 294 295 300 316 316 314 314 316 320 321 321 318 315 313 311 308 307 304 302 301 301 301
291 292 285 281 278 275 281 286 290 287 277 286 285 284 284 286 279 283 292 296 295 294 294 296 301 316 316 315 314 313 312 312 312 315 313 310 309 305 302 301 301 300 299 299
283 282 281 281 279 282 286 290 289 277 279 285 285 285 284 283 285 289 292 293 295 294 295 300 312 315 316 318 314 311 310 309 310 311 310 307 305 303 301 299 298 297 296 295
284 282 280 282 278 276 292 288 280 284 285 285 285 286 286 290 293 293 293 293 294 295 300 309 315 314 316 317 314 311 309 310 309 308 305 302 301 301 300 297 296 297 294 293
284 287 285 284 284 292 293 287 288 286 284 285 285 289 292 298 299 298 295 295 297 306 314 315 313 312 313 314 314 310 309 309 307 305 303 301 300 299 298 297 297 293 293 292
290 292 287 286 287 289 289 290 289 287 285 287 292 294 296 306 307 308 311 311 311 312 312 311 310 309 309 311 310 309 309 308 306 303 301 300 298 297 298 297 295 293 291 290
291 289 287 286 287 288 289 289 288 287 288 291 294 295 307 307 306 307 310 310 311 310 309 310 308 308 307 309 309 309 308 308 305 304 301 299 299 298 295 294 295 292 290 291
289 288 285 285 286 285 286 289 289 286 289 291 293 294 305 306 305 306 306 309 308 307 308 307 307 306 305 305 303 304 305 304 301 298 298 297 296 295 294 291 288 290 290 289
Wind_Speed
3 3 7 12 11 16 11 14 18 15 16 17 22 26 22 13 9 10 12 9 8 10 7 5 9 7 9 11 14 15 13 11 9 7 6 7 10 7 7 8 11 8 7 6
4 7 13 10 9 11 13 16 18 14 15 14 18 27 19 15 10 13 15 13 10 6 4 5 7 7 13 15 16 14 15 11 12 10 9 6 10 8 9 7 8 10 8 7
7 11 10 12 15 14 11 11 14 12 8 9 13 29 19 14 9 8 10 11 10 10 10 6 8 10 11 14 15 16 15 15 12 9 6 4 3 5 4 3 3 5 11 8
6 6 18 15 16 11 14 5 6 10 7 13 9 20 27 12 21 16 14 14 17 17 8 7 9 8 9 14 16 16 16 17 13 7 8 13 12 11 6 8 5 6 12 10
8 13 20 11 8 2 5 4 1 7 11 5 11 7 26 8 13 12 13 17 18 15 8 9 10 12 13 12 13 15 16 14 15 11 9 10 10 4 7 7 13 11 8 13
10 14 4 4 4 3 3 4 16 5 2 8 10 15 18 13 14 7 14 14 14 14 10 9 10 11 13 11 12 13 15 14 13 14 8 9 7 9 10 9 10 8 7 9
16 3 6 3 4 5 7 7 6 6 3 8 6 10 16 7 12 10 10 11 13 12 9 7 9 9 10 15 12 11 13 15 14 14 13 8 8 9 14 14 11 14 9 9
4 14 2 4 6 10 12 8 5 7 4 5 5 11 7 12 14 13 9 8 11 10 9 8 8 10 12 15 17 13 14 14 15 14 14 7 9 8 10 12 12 11 10 11
7 9 11 19 20 6 4 4 4 6 10 9 6 7 10 13 12 8 8 8 10 9 8 7 9 10 14 15 18 18 17 17 17 16 14 12 10 14 12 14 12 9 12 11
6 20 9 4 3 9 12 4 1 3 5 7 5 4 9 9 5 4 6 8 9 8 8 9 7 9 11 15 16 17 19 19 18 17 13 13 12 14 14 14 13 14 12 12
4 7 9 8 6 5 1 3 5 4 4 4 6 5 7 10 11 5 7 8 7 8 9 9 8 8 9 11 16 19 18 16 15 15 14 13 14 15 15 15 15 15 15 12
7 5 10 10 24 9 4 5 5 4 3 5 5 14 11 6 3 2 5 7 7 7 9 12 11 9 7 10 14 18 17 17 18 17 17 16 15 17 16 16 15 17 16 11
4 4 5 5 4 5 2 2 4 7 8 17 13 8 1 5 7 5 6 5 6 10 12 14 12 9 8 10 14 17 17 18 19 18 18 17 18 16 15 16 15 14 17 13
7 2 7 11 16 10 15 16 17 14 7 14 17 28 18 19 18 14 16 10 7 9 11 11 15 10 9 8 13 15 17 18 20 19 19 20 18 18 17 14 14 16 14 13
4 4 8 16 22 22 23 23 20 20 19 17 18 16 17 19 15 13 10 13 12 12 14 10 14 14 12 6 6 13 15 19 21 19 19 20 19 19 19 16 15 16 13 11
3 5 11 17 17 22 24 22 20 19 12 13 17 25 20 17 6 11 12 15 15 15 15 14 12 17 4 7 11 14 18 18 21 20 19 20 20 20 19 18 18 17 15 13
3 4 7 8 8 19 12 3 3 3 7 9 16 24 18 15 15 14 20 17 19 16 16 15 11 13 8 10 12 15 18 19 21 21 20 22 23 22 21 19 18 17 15 13
4 3 3 9 9 5 2 3 3 8 17 18 23 19 10 10 16 22 22 21 22 16 18 16 9 6 4 10 10 17 20 20 20 22 21 22 26 23 21 21 20 18 14 14
6 2 5 5 6 19 8 2 4 10 34 16 5 11 23 26 22 31 21 22 23 21 17 12 7 5 11 14 15 23 18 20 18 20 24 24 25 24 22 21 19 17 15 14
2 5 4 5 6 7 1 4 9 15 13 3 18 29 27 20 14 21 9 5 10 18 13 10 9 8 11 12 20 26 23 23 16 14 15 26 24 27 23 21 18 13 15 14
6 5 6 9 7 9 2 13 8 5 10 22 25 26 26 20 18 24 21 20 12 11 13 10 11 12 13 12 16 22 24 24 22 16 16 23 24 23 19 20 18 15 15 17
4 6 3 4 5 7 8 10 11 9 22 25 29 24 23 22 22 19 21 15 10 13 12 11 14 13 12 16 19 23 24 23 23 22 19 25 22 20 16 22 18 16 17 17
4 5 5 4 8 18 16 13 9 13 21 26 24 29 25 18 5 7 10 12 11 9 11 15 15 17 14 15 18 25 24 22 23 24 21 22 21 18 17 21 18 16 15 13
5 1 4 5 6 11 17 8 12 18 20 25 21 22 21 5 9 14 14 17 16 15 15 16 18 19 18 18 21 24 22 23 22 25 22 20 20 19 17 13 12 14 12 11
6 2 2 8 7 15 6 16 17 22 22 24 26 21 6 12 14 15 15 17 17 17 15 17 18 19 19 19 20 23 21 22 21 20 18 19 16 16 15 11 10 11 8 9
4 5 1 6 6 5 14 19 20 19 21 24 25 24 9 17 16 19 13 15 17 19 20 19 19 21 18 18 19 18 19 21 22 19 15 14 13 13 12 12 12 20 18 18
Wind_Direction
214 125 240 243 233 254 263 266 265 274 283 284 286 281 289 285 265 276 277 276 251 262 242 206 207 196 168 176 176 184 179 178 168 164 156 161 169 171 179 172 172 170 161 154
356 243 247 248 247 251 247 260 268 270 260 271 281 276 281 272 244 251 266 271 266 245 237 198 194 182 174 182 188 183 184 179 183 180 177 177 168 181 176 170 172 159 143 132
229 249 295 283 275 258 246 252 272 277 289 270 300 285 279 266 263 255 255 258 249 231 243 210 182 191 181 184 191 193 187 184 191 182 173 155 127 140 120 134 150 141 130 129
272 300 309 295 277 260 270 269 280 307 307 283 174 278 274 258 260 252 262 259 259 255 218 225 180 182 200 194 196 204 191 182 192 176 185 183 185 185 171 146 143 140 132 123
261 319 313 300 262 217 250 319 267 284 271 290 231 255 276 208 250 254 245 246 250 247 215 204 181 185 199 208 194 194 201 196 185 176 191 183 198 185 131 144 137 128 122 114
262 292 231 245 298 153 236 357 312 300 150 243 235 218 274 239 250 241 253 254 253 255 241 211 192 182 192 194 205 190 191 197 193 184 182 184 179 132 126 133 123 120 123 106
314 247 279 190 321 355 37 29 318 330 225 244 320 238 245 269 264 233 249 263 261 254 242 216 194 184 190 181 205 188 185 196 192 190 184 185 151 142 146 148 142 137 133 117
332 313 251 201 272 293 289 171 197 242 232 264 331 256 249 228 251 249 264 286 269 250 245 243 219 191 188 197 191 195 192 197 189 191 186 160 158 144 143 146 148 141 138 131
311 260 298 286 285 161 256 173 207 268 273 265 222 286 304 264 256 260 284 308 275 260 246 272 264 207 188 194 193 186 196 200 186 188 177 161 148 147 151 144 142 132 131 132
240 289 276 287 285 237 206 186 6 185 256 259 255 245 244 297 284 296 292 292 326 317 300 281 275 235 197 197 193 199 192 192 183 177 176 160 153 141 142 131 134 132 124 132
215 217 279 341 222 207 148 209 213 227 207 251 300 233 221 231 245 234 304 298 305 312 301 286 278 268 206 198 189 195 199 179 169 158 162 152 145 139 137 136 134 129 130 133
210 243 270 260 278 274 195 238 187 258 261 234 262 266 238 261 199 296 310 329 339 325 313 304 292 264 250 197 188 196 197 170 168 156 152 149 142 141 136 138 140 138 126 140
177 241 298 281 3 15 92 182 243 244 270 249 252 253 305 5 323 304 303 307 320 321 321 315 315 289 253 210 192 186 181 172 163 159 147 145 146 137 129 130 135 135 124 124
153 239 240 277 278 275 269 265 260 248 242 263 249 272 280 292 286 294 309 306 330 318 312 312 314 293 275 227 195 171 176 161 153 156 155 151 144 131 123 129 122 120 113 122
163 247 255 260 264 269 268 266 265 252 254 250 271 277 285 280 283 293 303 304 312 308 304 309 310 298 285 207 179 149 163 149 147 144 152 151 131 128 126 124 110 106 121 114
167 277 298 290 258 264 269 264 251 257 245 265 273 273 277 281 280 273 284 297 290 289 292 300 314 304 228 162 143 146 147 151 140 141 140 140 140 128 123 118 120 119 118 114
216 273 303 287 298 299 280 331 82 280 250 263 270 287 298 289 277 289 292 284 276 273 277 285 296 292 231 161 145 133 134 134 142 140 135 135 127 125 127 127 125 121 116 119
208 256 259 286 311 268 140 114 306 252 271 284 280 284 292 285 287 281 275 266 263 255 259 262 274 237 201 119 120 119 128 131 138 135 132 133 127 127 127 127 126 119 119 117
214 257 285 287 282 274 221 114 314 310 302 297 281 302 310 305 301 284 257 248 242 232 235 244 261 210 153 127 114 102 118 115 129 139 139 134 130 125 126 122 113 115 117 114
205 240 240 307 282 282 85 300 292 304 275 68 330 301 289 296 277 273 293 274 238 215 216 220 249 167 139 140 122 112 111 101 97 121 137 129 128 124 118 116 117 118 114 116
307 299 249 268 261 272 143 342 313 283 294 308 295 291 290 277 246 267 277 275 270 204 204 206 208 155 154 138 121 112 107 109 108 97 120 120 116 114 112 120 114 115 122 102
294 308 281 267 274 290 336 340 338 289 296 297 302 298 294 288 276 249 242 238 182 183 195 204 141 131 139 138 123 114 111 111 103 106 111 101 109 111 127 115 114 120 106 102
279 220 281 233 260 290 319 311 283 294 293 304 309 310 312 304 335 87 103 130 167 172 151 120 122 118 112 123 126 113 106 109 112 112 100 100 105 122 116 112 122 107 106 108
268 203 253 319 275 308 311 304 310 311 306 303 311 308 302 74 68 73 108 118 108 97 108 106 111 106 112 111 103 104 112 114 110 111 115 120 115 111 110 111 107 108 114 119
267 359 263 261 299 310 281 325 327 318 319 323 331 338 90 77 74 85 104 117 114 101 109 110 107 108 107 107 107 108 112 113 111 112 110 106 106 102 97 80 96 105 91 118
203 233 205 294 331 276 302 318 327 322 328 334 344 342 30 79 84 84 87 109 106 112 105 99 102 99 96 96 96 104 113 114 109 104 105 109 103 97 96 95 80 67 95 95